When you browse on this site, cookies collect data to enhance your experience and personalize the content and advertising you see.
Visit our Privacy Policy to learn more. By continuing to use the site, you agree to this use of cookies and data.
  • In Schweiz
  • Länderverzeichnis
  • Für 7 Tage
  • Wassertemperatur
  • Satellitenkarten
  • Wetterkarte
  • Widgets
  • user-avatar
    Anmelden

    Stündliche Wetter Canberra

    Heute, 25 Mai, Samstag

    Zeit Temperatur Niederschläge Wind Luftdruck Luftfeuchtigkeit
    00:00 +9°C° 0 mm 1 m/S 711 mmHg 79%
    01:00 +9°C° 0 mm 1 m/S 711 mmHg 80%
    02:00 +9°C° 0 mm 1 m/S 711 mmHg 80%
    03:00 +9°C° 0 mm 1 m/S 711 mmHg 81%
    04:00 +8°C° 0 mm 1 m/S 710 mmHg 82%
    05:00 +8°C° 0 mm 1 m/S 710 mmHg 82%
    06:00 +8°C° 0 mm 1 m/S 710 mmHg 81%
    07:00 +7°C° 0 mm 1 m/S 710 mmHg 80%
    08:00 +9°C° 0 mm 2 m/S 710 mmHg 70%
    09:00 +13°C° 0 mm 2 m/S 710 mmHg 60%
    10:00 +16°C° 0 mm 3 m/S 711 mmHg 49%
    11:00 +17°C° 0 mm 4 m/S 710 mmHg 47%
    12:00 +19°C° 0 mm 5 m/S 710 mmHg 44%
    13:00 +20°C° 0 mm 5 m/S 710 mmHg 41%
    14:00 +19°C° 0 mm 5 m/S 709 mmHg 44%
    15:00 +19°C° 0 mm 4 m/S 709 mmHg 48%
    16:00 +18°C° 0 mm 3 m/S 708 mmHg 51%
    17:00 +16°C° 0 mm 3 m/S 708 mmHg 57%
    18:00 +15°C° 0 mm 2 m/S 708 mmHg 63%
    19:00 +13°C° 0 mm 2 m/S 708 mmHg 70%
    20:00 +13°C° 0.1 mm 2 m/S 708 mmHg 69%
    21:00 +13°C° 0.1 mm 2 m/S 707 mmHg 69%
    22:00 +12°C° 0.1 mm 3 m/S 707 mmHg 69%
    23:00 +12°C° 0.2 mm 3 m/S 707 mmHg 74%

    Morgen, 26 Mai, Sonntag

    Zeit Temperatur Niederschläge Wind Luftdruck Luftfeuchtigkeit
    00:00 +11°C° 0.2 mm 3 m/S 707 mmHg 78%
    01:00 +11°C° 0.2 mm 4 m/S 707 mmHg 83%
    02:00 +11°C° 0.2 mm 4 m/S 706 mmHg 86%
    03:00 +10°C° 0.2 mm 4 m/S 706 mmHg 90%
    04:00 +10°C° 0.2 mm 4 m/S 706 mmHg 93%
    05:00 +10°C° 0 mm 4 m/S 706 mmHg 92%
    06:00 +8°C° 0 mm 4 m/S 707 mmHg 91%
    07:00 +8°C° 0 mm 4 m/S 707 mmHg 90%
    08:00 +10°C° 0 mm 4 m/S 707 mmHg 82%
    09:00 +9°C° 0 mm 5 m/S 707 mmHg 74%
    10:00 +10°C° 0 mm 5 m/S 708 mmHg 65%
    11:00 +10°C° 0 mm 5 m/S 707 mmHg 59%
    12:00 +12°C° 0 mm 5 m/S 707 mmHg 53%
    13:00 +13°C° 0 mm 5 m/S 707 mmHg 47%
    14:00 +12°C° 0 mm 5 m/S 707 mmHg 50%
    15:00 +10°C° 0 mm 5 m/S 706 mmHg 52%
    16:00 +10°C° 0 mm 5 m/S 706 mmHg 55%
    17:00 +8°C° 0 mm 4 m/S 706 mmHg 63%
    18:00 +8°C° 0 mm 3 m/S 706 mmHg 71%
    19:00 +5°C° 0 mm 3 m/S 706 mmHg 78%
    20:00 +5°C° 0 mm 3 m/S 706 mmHg 77%
    21:00 +5°C° 0 mm 4 m/S 706 mmHg 76%
    22:00 +5°C° 0 mm 4 m/S 706 mmHg 75%
    23:00 +5°C° 0 mm 5 m/S 706 mmHg 73%

    übermorgen, 27 Mai, Montag

    Zeit Temperatur Niederschläge Wind Luftdruck Luftfeuchtigkeit
    00:00 +5°C° 0 mm 6 m/S 705 mmHg 71%
    01:00 +5°C° 0 mm 6 m/S 704 mmHg 69%
    02:00 +5°C° 0 mm 6 m/S 704 mmHg 70%
    03:00 +5°C° 0 mm 6 m/S 703 mmHg 71%
    04:00 +5°C° 0 mm 6 m/S 702 mmHg 72%
    05:00 +5°C° 0.6 mm 6 m/S 702 mmHg 77%
    06:00 +4°C° 0.6 mm 6 m/S 703 mmHg 83%
    07:00 +4°C° 0.6 mm 6 m/S 703 mmHg 88%
    08:00 +4°C° 0.3 mm 7 m/S 703 mmHg 81%
    09:00 +4°C° 0.3 mm 7 m/S 703 mmHg 73%
    10:00 +4°C° 0.3 mm 8 m/S 704 mmHg 66%
    11:00 +5°C° 0 mm 8 m/S 704 mmHg 61%
    12:00 +5°C° 0 mm 8 m/S 704 mmHg 56%
    13:00 +6°C° 0 mm 9 m/S 704 mmHg 52%
    14:00 +6°C° 0 mm 8 m/S 704 mmHg 53%
    15:00 +5°C° 0 mm 8 m/S 704 mmHg 55%
    16:00 +5°C° 0 mm 7 m/S 704 mmHg 56%
    17:00 +4°C° 0 mm 7 m/S 705 mmHg 61%
    18:00 +3°C° 0 mm 6 m/S 705 mmHg 65%
    19:00 +2°C° 0 mm 5 m/S 706 mmHg 70%
    20:00 +3°C° 0 mm 4 m/S 706 mmHg 71%
    21:00 +3°C° 0 mm 4 m/S 707 mmHg 73%
    22:00 +2°C° 0 mm 3 m/S 707 mmHg 75%
    23:00 +2°C° 0 mm 3 m/S 707 mmHg 77%

    28 Mai, Dienstag

    Zeit Temperatur Niederschläge Wind Luftdruck Luftfeuchtigkeit
    00:00 +2°C° 0 mm 3 m/S 707 mmHg 78%
    01:00 +1°C° 0 mm 3 m/S 707 mmHg 80%
    02:00 +1°C° 0 mm 4 m/S 707 mmHg 80%
    03:00 +1°C° 0 mm 4 m/S 707 mmHg 81%
    04:00 +1°C° 0 mm 4 m/S 707 mmHg 82%
    05:00 +1°C° 0 mm 4 m/S 707 mmHg 82%
    06:00 +1°C° 0 mm 4 m/S 707 mmHg 83%
    07:00 +1°C° 0 mm 4 m/S 707 mmHg 83%
    08:00 +4°C° 0 mm 4 m/S 707 mmHg 77%
    09:00 +5°C° 0 mm 5 m/S 707 mmHg 71%
    10:00 +7°C° 0 mm 6 m/S 708 mmHg 65%
    11:00 +7°C° 0 mm 6 m/S 707 mmHg 64%
    12:00 +8°C° 0 mm 7 m/S 706 mmHg 64%
    13:00 +8°C° 0 mm 7 m/S 706 mmHg 63%
    14:00 +8°C° 0 mm 7 m/S 705 mmHg 65%
    15:00 +8°C° 0 mm 7 m/S 705 mmHg 67%
    16:00 +6°C° 0 mm 7 m/S 704 mmHg 69%
    17:00 +6°C° 0 mm 7 m/S 704 mmHg 72%
    18:00 +6°C° 0 mm 7 m/S 704 mmHg 74%
    19:00 +6°C° 0 mm 7 m/S 704 mmHg 76%
    20:00 +6°C° 0 mm 8 m/S 704 mmHg 76%
    21:00 +6°C° 0 mm 8 m/S 703 mmHg 76%
    22:00 +6°C° 0 mm 9 m/S 703 mmHg 76%
    23:00 +6°C° 0 mm 9 m/S 703 mmHg 76%

    29 Mai, Mittwoch

    Zeit Temperatur Niederschläge Wind Luftdruck Luftfeuchtigkeit
    00:00 +6°C° 0 mm 10 m/S 702 mmHg 75%
    01:00 +7°C° 0 mm 10 m/S 701 mmHg 75%
    02:00 +6°C° 0 mm 10 m/S 701 mmHg 76%
    03:00 +6°C° 0 mm 9 m/S 701 mmHg 76%
    04:00 +6°C° 0 mm 9 m/S 700 mmHg 77%
    05:00 +6°C° 0 mm 8 m/S 701 mmHg 76%
    06:00 +6°C° 0 mm 8 m/S 701 mmHg 76%
    07:00 +6°C° 0 mm 8 m/S 701 mmHg 76%
    08:00 +6°C° 0.1 mm 8 m/S 701 mmHg 75%
    09:00 +6°C° 0.1 mm 8 m/S 701 mmHg 73%
    10:00 +6°C° 0.1 mm 8 m/S 701 mmHg 72%
    11:00 +6°C° 0.1 mm 8 m/S 701 mmHg 68%
    12:00 +6°C° 0.1 mm 9 m/S 701 mmHg 63%
    13:00 +6°C° 0.1 mm 9 m/S 701 mmHg 59%
    14:00 +6°C° 0 mm 8 m/S 701 mmHg 59%
    15:00 +5°C° 0 mm 7 m/S 701 mmHg 58%
    16:00 +5°C° 0 mm 7 m/S 702 mmHg 58%
    17:00 +4°C° 0 mm 6 m/S 702 mmHg 63%
    18:00 +3°C° 0 mm 5 m/S 702 mmHg 68%
    19:00 +3°C° 0 mm 4 m/S 703 mmHg 72%
    20:00 +2°C° 0 mm 3 m/S 703 mmHg 75%
    21:00 +2°C° 0 mm 3 m/S 704 mmHg 77%
    22:00 +1°C° 0 mm 3 m/S 704 mmHg 79%
    23:00 +1°C° 0 mm 3 m/S 704 mmHg 80%

    30 Mai, Donnerstag

    Zeit Temperatur Niederschläge Wind Luftdruck Luftfeuchtigkeit
    00:00 +1°C° 0 mm 3 m/S 704 mmHg 82%
    01:00 0°C° 0 mm 3 m/S 704 mmHg 83%
    02:00 +1°C° 0 mm 3 m/S 705 mmHg 81%
    03:00 +1°C° 0 mm 3 m/S 705 mmHg 80%
    04:00 0°C° 0 mm 4 m/S 705 mmHg 78%
    05:00 +1°C° 0.1 mm 3 m/S 706 mmHg 80%
    06:00 +2°C° 0.1 mm 2 m/S 707 mmHg 81%
    07:00 +2°C° 0.1 mm 2 m/S 707 mmHg 83%
    08:00 +3°C° 0 mm 2 m/S 708 mmHg 72%
    09:00 +4°C° 0 mm 3 m/S 709 mmHg 62%
    10:00 +5°C° 0 mm 3 m/S 710 mmHg 52%
    11:00 +6°C° 0 mm 4 m/S 710 mmHg 47%
    12:00 +8°C° 0 mm 4 m/S 710 mmHg 42%
    13:00 +10°C° 0 mm 4 m/S 710 mmHg 37%
    14:00 +8°C° 0 mm 4 m/S 711 mmHg 41%
    15:00 +8°C° 0 mm 4 m/S 711 mmHg 45%
    16:00 +8°C° 0 mm 3 m/S 712 mmHg 48%
    17:00 +5°C° 0 mm 3 m/S 712 mmHg 57%
    18:00 +4°C° 0 mm 3 m/S 713 mmHg 65%
    19:00 +3°C° 0 mm 2 m/S 714 mmHg 73%
    20:00 +3°C° 0 mm 2 m/S 714 mmHg 75%
    21:00 +2°C° 0 mm 2 m/S 715 mmHg 78%
    22:00 +2°C° 0 mm 2 m/S 715 mmHg 80%
    23:00 +2°C° 0 mm 2 m/S 715 mmHg 80%
    Mehr zeigen